Back to catalog

STARLINK-34747

AliveCommunicationsSSO
NORAD 64947·PAYLOAD·🇺🇸 United States

Launched Jul 26, 2025 from Vandenberg Space Force Base

Loading…

Next Passes (next 24 hours)

TLE

FreshSource: CelesTrak SupGP

Epoch: Sep 14, 2026, 22:58 UTC

1 64947C 25158R   26257.95743056  .00078208  00000+0  24280-2 0  2571
2 64947  97.2848 116.2517 0002160  91.6036 162.4784 15.33394926    15

Track STARLINK-34747 in real time with AllMySat

Download on the App Store